Tracking 30970 objects as of 3-Jul-2025
HD Live streaming from Space Station
objects crossing your sky now

QIANFAN-48

Track QIANFAN-48 now!
10-day predictions
QIANFAN-48 is classified as:


NORAD ID: 62249
Int'l Code: 2024-232N
Perigee: 1,064.0 km
Apogee: 1,087.8 km
Inclination: 89.0 °
Period: 106.6 minutes
Semi major axis: 7446 km
RCS: Unknown
Launch date: December 5, 2024
Source: People's Republic of China (PRC)
Launch site: Taiyaun Space Center, China (TSC)
Your satellite tracking list
IRIDIUM 147
Track 1 satellite(s)




NASA's NSSDC Master Catalog

Two Line Element Set (TLE):
1 62249U 24232N   25183.90956171  .00000087  00000-0  11696-3 0  9994
2 62249  88.9955  57.6999 0015999 317.1636  42.8268 13.50949773 77264
Source of the keplerian elements: AFSPC